464  
ASUS43 KLMK 270510  
RWRKY  
KENTUCKY REGIONAL WEATHER ROUNDUP  
NATIONAL WEATHER SERVICE LOUISVILLE KY  
1200 AM EST SAT FEB 27 2021  
 
NOTE "FAIR" INDICATES FEW OR NO CLOUDS BELOW 12,000 FEET  
WITH NO SIGNIFICANT WEATHER AND/OR S TO VISIBILITY
.  
 
KYZ001>023-026-027-061>063-070>075-270600-  
WESTERN AND SOUTH CENTRAL KENTUCKY  
 
CITY SKY/WX TMP DP RH WIND PRES REMARKS
 
PADUCAH LGT RAIN 46 44 93 CALM 29.89F FOG  
HENDERSON LGT RAIN 43 42 97 SE7 29.90F  
OWENSBORO CLOUDY 43 43 100 SE3 29.92F  
HOPKINSVILLE LGT RAIN 52 52 100 SE3 29.91S FOG  
BOWLING GREEN LGT RAIN 47 44 90 CALM 29.94F FOG  
GLASGOW CLOUDY 47 47 100 CALM 29.95F  

 
 
KYZ024-025-028>034-038-045-046-053-270600-  
NORTH CENTRAL KENTUCKY  
 
CITY SKY/WX TMP DP RH WIND PRES REMARKS
 
LOUISVILLE/SDF LGT RAIN 43 41 93 SE5 29.95F  
LOUISVILLE/LOU LGT RAIN 44 39 82 SE6 29.94F  
FORT KNOX CLOUDY 41 41 100 E3 29.94S  

 
 
KYZ035>037-039>044-047>052-055>060-089>105-270600-  
NORTHEAST KENTUCKY  
 
CITY SKY/WX TMP DP RH WIND PRES REMARKS
 
LEXINGTON LGT RAIN 43 41 93 S12 29.98F  
COVINGTON CLOUDY 43 40 89 S10 29.95F FOG  
FRANKFORT CLOUDY 45 41 86 SE10 29.96F  

 
 
KYZ054-064>069-076>088-106>120-270600-  
SOUTHEAST KENTUCKY  
 
CITY SKY/WX TMP DP RH WIND PRES REMARKS
 
JACKSON CLOUDY 47 43 86 SE8 30.00F  
LONDON LGT RAIN 48 45 89 SE5 30.00F  
SOMERSET RAIN 46 43 87 CALM 30.01F  
MIDDLESBORO RAIN 46 46 100 SE3 30.07F  
MONTICELLO LGT RAIN 51 51 100 E8 30.00F FOG  

 
 
 
 
CLICK HERE TO GO TO PREVIOUS BULLETINS.

The Nexlab KY Page Main Text Page